Temperature
8 7 7 7 7 7 7 7 7 7 7 7 6 6 6 7 7 7 7 7 7 7 7 6 6 6 6 6 6 6 6 6 5 6 6 7 7 8 8 8 8 8 8
8 7 7 6 6 6 6 6 6 6 6 5 5 6 6 6 6 6 6 7 6 6 6 6 6 6 6 5 5 5 5 5 5 5 6 6 7 7 7 8 7 8 8
7 6 6 6 5 5 5 5 5 5 4 4 4 4 4 4 5 5 5 6 6 6 6 6 5 5 5 5 5 5 5 5 5 5 5 6 6 6 7 7 7 8 8
7 6 5 5 4 4 3 3 2 2 2 1 1 1 2 2 3 3 4 5 5 5 5 5 5 5 5 5 5 5 5 5 5 4 4 5 5 6 6 6 7 8 8
5 5 4 3 2 2 1 1 -0 -1 -1 -1 -1 -0 0 1 2 2 3 3 4 4 4 4 4 3 4 4 4 4 4 4 4 3 3 4 5 5 5 6 6 7 7
4 3 2 2 1 0 -1 -3 -3 -2 -2 -2 -1 -1 -0 -0 0 1 1 2 2 2 2 2 2 2 3 3 3 3 2 2 2 2 2 3 4 4 5 5 5 6 5
3 2 1 -1 -1 -3 -4 -4 -4 -4 -3 -3 -2 -2 -1 -1 -1 -1 -1 0 0 1 1 1 1 1 1 1 1 0 1 0 1 1 2 2 3 4 4 4 4 5 5
-0 -1 -2 -3 -3 -4 -5 -5 -4 -4 -4 -3 -3 -3 -3 -3 -3 -3 -3 -2 -1 -1 -1 -1 -1 -1 -1 -1 -2 -2 -1 -0 -0 0 1 2 2 3 3 4 4 4 4
-2 -2 -3 -4 -4 -5 -5 -5 -5 -4 -4 -4 -4 -4 -4 -4 -4 -4 -5 -4 -4 -4 -4 -3 -3 -3 -3 -4 -3 -3 -3 -2 -1 -0 1 1 2 2 3 3 3 4 4
-2 -3 -4 -4 -5 -6 -6 -6 -5 -5 -5 -5 -5 -5 -5 -5 -6 -6 -5 -6 -6 -6 -5 -5 -5 -5 -5 -5 -4 -4 -4 -3 -3 -2 -1 -0 1 1 2 2 3 3 4
-4 -4 -5 -5 -6 -6 -6 -6 -6 -6 -6 -6 -6 -6 -6 -6 -6 -7 -6 -7 -7 -7 -7 -7 -7 -6 -6 -6 -5 -5 -5 -4 -3 -3 -2 -1 -1 0 1 2 2 3 3
-5 -5 -5 -6 -7 -7 -7 -7 -7 -7 -7 -7 -7 -7 -7 -7 -7 -8 -8 -8 -8 -8 -8 -8 -8 -8 -7 -6 -5 -5 -5 -5 -4 -3 -2 -2 -1 -1 0 1 2 2 3
-6 -6 -7 -8 -8 -8 -8 -8 -8 -8 -8 -9 -9 -9 -9 -8 -8 -9 -9 -9 -9 -9 -10 -9 -9 -8 -7 -6 -6 -5 -5 -5 -5 -5 -3 -2 -2 -1 -1 0 1 1 2
-7 -8 -8 -8 -8 -9 -9 -9 -9 -9 -9 -10 -10 -10 -9 -9 -9 -10 -10 -10 -10 -10 -10 -9 -9 -8 -8 -7 -6 -6 -6 -6 -6 -6 -6 -5 -4 -3 -2 -1 1 1 1
-8 -9 -9 -9 -9 -9 -9 -9 -9 -10 -11 -11 -11 -11 -11 -10 -10 -11 -11 -11 -11 -11 -10 -9 -9 -9 -8 -8 -7 -7 -7 -6 -7 -7 -6 -6 -5 -4 -2 -2 0 0 1
-9 -9 -9 -9 -9 -9 -9 -9 -9 -10 -10 -10 -11 -11 -11 -11 -11 -12 -12 -12 -11 -11 -10 -10 -10 -10 -10 -10 -10 -9 -8 -8 -8 -8 -7 -6 -6 -5 -3 -2 -1 0 1
-9 -9 -9 -10 -9 -9 -9 -9 -9 -9 -10 -10 -10 -10 -11 -12 -12 -13 -13 -12 -11 -11 -11 -11 -11 -12 -12 -12 -11 -11 -10 -9 -9 -9 -8 -7 -6 -5 -4 -2 -1 -1 -0
-10 -10 -10 -10 -10 -10 -10 -10 -11 -11 -10 -10 -10 -11 -11 -12 -13 -14 -14 -13 -12 -12 -12 -13 -13 -13 -13 -12 -12 -12 -11 -10 -10 -10 -8 -7 -6 -5 -4 -3 -2 -1 -1
-10 -11 -11 -11 -11 -11 -11 -11 -12 -12 -12 -11 -11 -12 -12 -13 -14 -14 -14 -14 -14 -14 -14 -14 -14 -13 -13 -13 -13 -12 -11 -11 -11 -10 -8 -7 -6 -5 -5 -4 -3 -2 -2
-11 -11 -11 -11 -12 -12 -12 -12 -12 -12 -12 -12 -12 -12 -13 -14 -14 -14 -14 -15 -15 -15 -15 -15 -14 -14 -14 -14 -13 -12 -12 -11 -11 -11 -9 -8 -7 -6 -5 -5 -4 -5 -5
-12 -12 -12 -12 -12 -12 -12 -13 -13 -13 -13 -13 -13 -13 -14 -15 -14 -14 -14 -15 -15 -16 -16 -15 -15 -15 -14 -14 -13 -13 -12 -12 -11 -11 -9 -8 -7 -7 -6 -6 -6 -6 -6
-13 -13 -13 -13 -13 -13 -13 -14 -13 -13 -13 -14 -14 -14 -15 -15 -15 -15 -16 -16 -16 -16 -16 -16 -15 -15 -15 -14 -14 -13 -12 -12 -12 -11 -10 -9 -8 -7 -7 -7 -7 -7 -7
-14 -13 -13 -13 -13 -14 -14 -14 -14 -14 -14 -14 -15 -15 -15 -15 -16 -16 -16 -16 -16 -16 -16 -16 -16 -15 -15 -14 -14 -13 -13 -12 -12 -11 -10 -10 -8 -8 -8 -8 -8 -8 -8
-14 -13 -13 -14 -14 -15 -14 -14 -15 -15 -15 -15 -15 -15 -15 -15 -15 -16 -16 -16 -16 -16 -16 -16 -16 -16 -15 -15 -14 -13 -13 -12 -12 -11 -11 -10 -9 -8 -8 -8 -8 -8 -9
-14 -14 -14 -14 -15 -15 -15 -15 -15 -15 -15 -15 -15 -15 -15 -15 -15 -15 -16 -16 -16 -16 -16 -16 -16 -16 -16 -15 -14 -13 -13 -12 -12 -12 -11 -10 -10 -9 -9 -9 -9 -9 -9
-14 -15 -15 -15 -15 -15 -15 -15 -15 -15 -15 -15 -15 -15 -15 -15 -15 -15 -16 -16 -16 -16 -16 -17 -17 -16 -16 -15 -14 -14 -13 -13 -12 -12 -12 -11 -10 -10 -10 -10 -10 -10 -10
Wind_Speed
7 7 9 10 10 10 9 9 9 9 10 10 10 10 10 9 9 8 8 9 9 8 7 7 8 6 4 5 5 5 5 6 10 8 6 6 8 10 9 6 7 7 10
7 7 8 8 8 9 9 9 10 10 10 10 10 10 10 10 9 9 10 10 9 9 9 7 7 4 4 3 4 5 6 7 7 9 7 7 11 12 13 10 8 7 7
7 7 7 7 7 7 7 8 10 10 11 9 8 8 9 9 9 9 9 10 10 9 8 6 5 2 2 2 4 5 5 6 6 7 8 6 9 8 10 10 10 9 8
8 7 6 6 7 7 7 7 9 11 11 10 9 9 9 8 7 6 8 9 7 6 4 2 2 3 3 4 4 5 6 6 7 8 9 7 7 7 8 10 8 8 8
6 5 4 4 5 7 7 7 8 10 10 11 11 10 9 7 6 9 9 8 8 8 6 5 4 6 6 7 7 6 6 6 7 8 9 8 6 6 7 8 10 9 10
4 4 5 5 6 7 9 9 8 8 9 9 10 9 8 7 12 14 11 8 9 8 8 9 8 7 7 11 13 14 14 11 10 10 11 12 11 8 8 10 10 8 8
6 6 5 5 7 7 8 9 8 8 7 8 9 9 10 13 18 19 16 10 9 9 10 10 10 11 12 9 12 15 16 20 20 15 14 16 13 10 9 11 12 12 9
6 6 6 6 6 7 8 8 9 8 8 8 9 11 11 14 19 18 16 9 8 8 8 8 8 9 11 15 13 13 13 14 17 16 15 14 13 11 10 12 13 14 13
6 6 6 6 6 6 7 8 8 7 7 8 9 10 11 12 18 18 15 8 8 8 8 8 10 10 18 22 16 14 14 14 18 24 23 23 24 22 16 11 12 13 11
7 7 6 7 7 6 6 7 7 7 7 7 6 8 11 10 17 20 17 10 10 9 8 9 16 18 23 25 19 15 16 16 16 16 18 18 17 19 23 19 14 14 11
7 6 6 7 7 5 6 7 6 6 7 7 7 7 8 11 16 20 20 12 11 11 10 10 12 23 25 25 23 16 19 22 19 17 15 14 12 12 13 14 14 14 13
7 6 6 7 7 7 6 6 6 6 6 6 6 5 5 8 14 18 21 18 16 11 10 10 13 24 24 24 19 21 27 23 15 14 14 13 12 11 12 13 14 13 14
6 6 6 6 7 7 6 6 5 5 5 5 5 5 5 5 9 17 19 20 20 14 12 17 20 22 20 16 20 23 19 13 12 13 13 13 11 12 13 13 13 13 14
5 5 5 6 7 7 6 5 5 5 5 5 6 6 6 6 8 8 8 11 15 14 11 14 18 17 14 15 16 14 11 12 13 13 13 14 14 12 13 14 13 12 11
4 5 5 5 5 5 5 5 5 5 5 5 4 4 6 7 12 17 14 11 10 13 13 9 9 9 10 11 11 12 12 13 13 13 14 15 14 14 13 14 13 11 11
4 5 4 4 4 4 4 6 8 9 11 10 10 9 8 12 18 19 19 19 18 17 10 8 9 10 11 12 13 14 14 14 14 15 15 16 15 15 16 14 13 11 11
4 4 4 4 4 4 5 6 6 8 10 12 13 13 13 15 16 17 18 18 15 13 8 8 9 10 11 12 12 13 15 16 17 16 16 17 16 15 16 13 12 10 8
5 5 3 4 4 4 5 5 6 7 8 8 11 13 14 16 15 15 16 12 9 8 7 8 9 10 11 12 13 14 15 16 16 16 17 17 16 13 11 9 9 8 10
5 4 2 3 5 5 5 6 6 7 7 8 8 9 12 14 12 12 12 7 7 8 8 9 9 10 11 12 13 14 15 16 18 17 17 18 15 11 7 5 7 11 13
4 8 7 5 6 6 6 6 6 6 7 8 8 8 10 10 7 8 7 7 7 7 9 9 10 11 11 11 13 14 15 17 18 17 17 16 11 5 0 4 7 9 10
4 6 9 6 5 5 5 5 5 5 6 7 7 9 14 9 7 8 8 8 8 8 9 9 10 11 11 12 12 14 16 16 17 16 16 14 9 3 3 6 9 10 12
3 5 5 5 6 6 6 4 5 6 6 8 8 10 14 8 6 8 8 8 8 8 9 9 10 10 10 11 13 15 16 17 16 16 15 12 8 4 5 8 10 11 12
4 5 6 6 6 8 7 6 6 7 8 8 9 10 10 8 8 8 8 8 8 8 8 9 10 10 11 12 13 14 15 17 14 15 13 9 6 4 6 8 10 12 12
5 5 6 6 7 7 7 8 8 9 10 10 10 10 9 9 9 9 9 8 7 8 8 8 9 12 14 14 13 14 16 15 10 11 11 7 5 6 7 9 10 12 13
5 6 6 6 7 7 8 9 9 9 10 10 10 10 10 10 9 9 8 7 8 8 8 8 9 11 15 18 18 18 23 20 13 9 8 6 7 8 9 11 12 13 14
7 7 7 7 7 8 9 9 10 11 11 11 11 11 11 10 10 9 8 7 6 6 7 8 9 11 13 13 18 22 26 19 14 12 8 7 9 10 12 13 15 14 14
Wind_Direction
40 31 36 30 25 23 19 6 354 350 349 343 330 320 308 296 287 279 270 269 265 263 255 247 258 262 256 271 269 253 243 241 267 273 252 234 226 222 226 206 217 215 219
51 43 41 37 28 19 5 354 349 347 342 333 329 325 321 316 308 293 282 275 262 258 257 251 257 267 283 289 288 275 267 257 250 267 268 239 228 226 230 216 211 217 218
59 52 40 25 16 2 350 342 342 334 322 315 321 323 322 319 319 317 303 285 270 259 252 240 244 228 270 274 284 286 282 279 270 268 270 246 239 226 229 229 222 224 222
56 50 34 19 0 346 337 338 341 331 325 323 318 314 309 303 310 345 343 327 307 302 299 272 263 257 261 270 266 268 278 279 275 269 268 259 238 222 217 228 217 210 220
63 61 37 14 355 342 333 338 336 330 332 333 325 321 318 322 356 21 20 4 15 14 8 355 335 305 303 307 304 287 276 275 278 276 273 263 243 223 227 225 223 211 220
69 49 24 14 4 355 345 346 337 323 322 328 321 326 332 355 11 20 32 24 24 14 4 351 336 307 307 316 316 310 301 290 283 279 277 268 254 234 232 229 226 216 224
36 24 15 3 6 355 349 345 332 323 326 338 339 354 10 20 22 29 33 25 22 12 4 353 344 345 336 317 310 308 299 291 284 275 267 267 265 248 231 230 230 222 220
24 7 2 5 351 356 354 344 339 342 350 358 7 15 26 18 15 19 24 21 18 359 346 337 331 330 331 324 316 305 296 290 282 275 267 263 261 260 242 240 233 232 236
15 356 350 348 334 349 355 344 345 352 10 11 18 22 25 10 6 10 17 6 0 345 330 327 336 334 327 326 319 308 303 295 288 281 273 273 268 261 252 250 246 234 225
357 343 346 346 329 340 5 354 352 7 16 7 10 26 19 6 359 360 8 3 357 347 340 347 344 337 332 329 324 314 306 297 290 286 282 276 273 270 259 246 242 242 230
342 346 350 346 332 3 19 14 6 14 14 10 8 8 9 3 356 353 353 359 352 344 338 337 335 333 331 328 324 315 303 301 292 278 275 270 267 264 258 246 235 231 236
350 358 353 347 350 8 23 17 14 8 9 5 353 347 355 356 349 346 343 343 344 343 334 328 329 328 328 328 325 320 319 315 305 290 270 262 262 259 257 244 231 224 226
1 359 354 355 10 8 8 12 8 4 352 346 342 340 341 348 336 331 338 342 341 339 328 330 332 329 330 327 325 327 328 322 314 308 298 280 263 263 261 247 228 223 223
7 358 4 12 21 12 6 4 6 357 342 345 344 339 337 336 318 313 330 340 343 336 332 339 335 330 330 330 329 327 325 318 314 307 300 295 286 269 262 254 231 219 218
9 8 15 27 19 5 358 357 360 346 343 344 328 325 325 323 321 335 337 337 337 333 342 341 334 335 334 333 330 327 324 321 315 310 304 297 289 278 258 249 234 212 208
21 19 13 24 9 5 356 355 1 360 357 356 346 336 328 320 326 334 334 336 337 343 346 337 334 334 331 329 328 325 322 319 314 309 301 295 284 275 268 244 224 210 199
12 28 14 8 358 3 3 359 346 346 353 353 348 341 337 327 331 334 332 334 337 345 340 330 327 325 323 323 322 319 316 313 311 307 302 297 286 276 265 239 217 204 189
357 7 16 360 348 351 351 347 339 336 336 338 342 338 335 328 332 334 333 335 331 336 330 321 319 319 321 321 319 316 314 314 311 311 310 303 292 279 262 230 207 186 165
350 339 350 355 338 340 340 332 330 329 327 324 325 328 326 322 330 334 337 334 326 328 325 321 319 317 317 316 314 313 313 313 313 315 314 310 299 280 253 210 180 165 154
340 340 341 341 332 332 326 321 320 318 318 319 320 323 318 322 339 335 334 329 326 323 320 318 318 316 315 313 313 314 314 315 314 317 318 315 309 311 34 126 130 132 127
318 327 332 323 307 301 296 289 286 289 300 309 308 312 319 336 335 327 327 325 322 318 316 315 314 313 312 313 313 314 314 313 312 318 320 318 319 351 63 99 108 112 115
297 305 308 306 304 302 297 291 292 291 296 303 306 309 318 324 315 313 312 309 307 309 309 311 309 307 308 309 310 312 312 311 313 321 321 320 330 25 81 101 108 111 114
308 306 308 304 300 307 315 310 302 302 302 299 300 305 309 308 304 301 295 293 296 300 303 304 304 306 309 310 308 308 308 308 314 322 320 321 339 41 86 101 109 113 114
323 314 312 312 313 317 312 308 308 304 302 301 300 298 293 288 284 282 282 283 286 290 296 300 303 305 309 312 311 310 307 311 324 327 327 337 14 62 84 92 100 108 111
324 324 323 317 313 313 309 304 297 292 293 293 290 285 281 281 280 279 275 270 274 282 291 300 302 305 309 312 312 312 321 339 354 355 350 10 53 72 88 95 99 102 104
335 331 327 322 314 307 302 299 298 298 297 294 290 286 285 283 281 278 273 265 263 272 285 294 296 300 307 313 315 327 342 3 16 24 23 38 66 77 84 87 92 92 95
Height
1442 1440 1438 1437 1437 1435 1434 1433 1431 1429 1428 1427 1425 1424 1422 1421 1420 1418 1417 1416 1415 1414 1413 1412 1411 1410 1409 1408 1408 1408 1405 1403 1401 1400 1399 1398 1401 1403 1405 1405 1406 1408 1412
1437 1437 1435 1434 1431 1429 1427 1426 1424 1421 1420 1419 1418 1417 1415 1413 1412 1410 1409 1408 1407 1406 1406 1405 1404 1403 1403 1402 1402 1401 1399 1398 1398 1395 1393 1392 1391 1392 1395 1397 1399 1400 1403
1433 1431 1430 1427 1424 1422 1420 1418 1415 1413 1412 1411 1409 1407 1406 1405 1403 1401 1399 1399 1398 1399 1399 1398 1397 1396 1396 1396 1395 1394 1392 1391 1390 1389 1387 1387 1386 1385 1388 1388 1390 1393 1394
1427 1425 1423 1419 1417 1414 1412 1409 1407 1406 1403 1400 1399 1398 1397 1397 1395 1393 1392 1390 1390 1390 1390 1390 1390 1390 1389 1389 1387 1386 1386 1384 1382 1382 1381 1380 1380 1379 1379 1380 1381 1383 1386
1421 1418 1416 1412 1410 1408 1406 1404 1403 1402 1399 1396 1394 1391 1391 1391 1389 1386 1385 1384 1383 1383 1383 1383 1383 1383 1382 1381 1379 1377 1377 1376 1375 1374 1373 1373 1371 1372 1372 1373 1373 1374 1378
1414 1411 1408 1406 1405 1403 1401 1401 1401 1399 1396 1393 1392 1388 1387 1386 1384 1382 1379 1379 1378 1378 1377 1377 1376 1376 1374 1373 1371 1370 1369 1369 1367 1367 1366 1365 1364 1366 1366 1367 1367 1368 1367
1408 1406 1405 1403 1401 1399 1399 1400 1399 1396 1393 1391 1390 1387 1385 1382 1381 1378 1376 1374 1373 1372 1371 1370 1368 1367 1366 1364 1363 1362 1361 1360 1360 1360 1358 1356 1357 1357 1359 1359 1359 1359 1358
1405 1405 1403 1401 1399 1397 1398 1399 1397 1394 1392 1390 1389 1386 1383 1381 1380 1378 1373 1370 1369 1368 1366 1363 1362 1360 1358 1356 1354 1352 1350 1349 1349 1349 1348 1347 1348 1348 1350 1351 1351 1350 1352
1402 1402 1401 1399 1397 1396 1396 1397 1395 1393 1391 1389 1388 1385 1381 1379 1378 1376 1371 1367 1365 1362 1361 1358 1356 1353 1351 1349 1347 1343 1340 1338 1337 1337 1336 1335 1335 1337 1339 1340 1340 1340 1339
1399 1399 1398 1396 1395 1394 1394 1393 1392 1390 1389 1387 1385 1382 1379 1377 1375 1373 1370 1365 1362 1358 1356 1353 1350 1347 1344 1342 1339 1336 1331 1328 1327 1325 1324 1323 1323 1324 1326 1328 1328 1328 1328
1398 1397 1396 1395 1394 1393 1391 1390 1388 1386 1386 1383 1382 1380 1376 1373 1371 1369 1367 1363 1359 1355 1352 1347 1344 1341 1339 1336 1332 1329 1325 1322 1317 1315 1313 1312 1311 1311 1313 1315 1315 1316 1317
1396 1395 1394 1393 1392 1390 1388 1387 1386 1383 1382 1380 1378 1376 1373 1370 1367 1365 1363 1361 1358 1353 1348 1344 1340 1336 1333 1330 1326 1322 1318 1313 1309 1305 1302 1301 1300 1299 1300 1301 1302 1303 1305
1394 1393 1392 1390 1389 1387 1386 1384 1383 1381 1379 1377 1375 1372 1368 1365 1363 1361 1358 1355 1352 1348 1343 1340 1335 1331 1327 1323 1320 1315 1310 1304 1299 1297 1293 1290 1289 1289 1289 1290 1290 1292 1295
1392 1391 1388 1387 1386 1384 1384 1382 1380 1379 1377 1375 1372 1369 1365 1362 1360 1357 1353 1349 1345 1341 1337 1332 1329 1326 1322 1318 1313 1308 1303 1298 1293 1289 1285 1281 1279 1277 1277 1278 1278 1280 1283
1389 1388 1386 1385 1384 1383 1381 1379 1378 1377 1375 1373 1370 1367 1364 1360 1358 1356 1352 1347 1342 1338 1333 1328 1324 1320 1315 1310 1306 1301 1296 1291 1286 1281 1276 1271 1267 1265 1264 1266 1265 1267 1269
1388 1386 1385 1384 1383 1382 1380 1378 1376 1375 1372 1369 1367 1365 1362 1359 1357 1353 1349 1346 1341 1336 1331 1326 1321 1316 1311 1306 1300 1295 1291 1286 1280 1274 1268 1262 1257 1253 1252 1252 1252 1254 1256
1387 1386 1385 1384 1382 1380 1377 1375 1374 1373 1371 1368 1364 1361 1358 1356 1354 1350 1347 1342 1338 1333 1329 1324 1319 1314 1309 1303 1298 1292 1286 1280 1274 1267 1260 1254 1247 1243 1241 1240 1240 1243 1245
1387 1386 1385 1383 1381 1378 1376 1373 1371 1368 1365 1363 1361 1358 1355 1353 1352 1348 1344 1339 1334 1329 1325 1321 1316 1311 1306 1300 1295 1289 1282 1275 1267 1261 1254 1246 1240 1234 1231 1230 1231 1232 1235
1387 1386 1383 1381 1379 1376 1373 1371 1368 1365 1362 1359 1356 1354 1352 1349 1347 1343 1338 1333 1328 1324 1320 1316 1312 1307 1302 1298 1292 1286 1279 1272 1264 1257 1248 1241 1234 1228 1225 1224 1225 1226 1229
1386 1384 1381 1379 1376 1373 1370 1368 1365 1362 1359 1355 1352 1349 1346 1344 1340 1336 1332 1327 1323 1320 1316 1311 1307 1304 1299 1295 1289 1283 1275 1268 1260 1253 1245 1238 1231 1226 1222 1221 1222 1224 1226
1383 1381 1379 1376 1373 1370 1367 1364 1361 1358 1355 1352 1349 1347 1345 1341 1336 1332 1327 1324 1320 1316 1311 1307 1303 1299 1295 1291 1286 1280 1273 1266 1258 1251 1244 1237 1232 1227 1224 1222 1223 1225 1228
1381 1379 1376 1373 1369 1366 1363 1361 1358 1355 1351 1349 1346 1343 1340 1336 1332 1328 1325 1321 1317 1312 1308 1303 1299 1296 1292 1288 1284 1278 1272 1264 1257 1250 1243 1238 1234 1230 1227 1226 1227 1229 1232
1379 1376 1372 1369 1366 1363 1360 1357 1354 1351 1348 1345 1342 1339 1335 1331 1328 1325 1321 1317 1313 1309 1305 1300 1296 1292 1288 1286 1282 1277 1271 1264 1257 1250 1244 1240 1237 1233 1231 1231 1232 1234 1237
1376 1372 1368 1365 1362 1359 1356 1353 1351 1348 1346 1342 1338 1334 1330 1327 1323 1320 1316 1312 1308 1305 1301 1296 1292 1288 1285 1282 1279 1275 1270 1264 1257 1250 1245 1242 1239 1237 1236 1236 1237 1239 1243
1372 1368 1365 1362 1359 1356 1353 1351 1348 1345 1341 1336 1332 1328 1325 1321 1318 1314 1311 1308 1304 1301 1297 1292 1288 1285 1282 1280 1277 1273 1269 1263 1257 1251 1247 1244 1242 1241 1241 1241 1243 1245 1249
1369 1366 1363 1360 1357 1355 1352 1349 1344 1340 1335 1330 1326 1322 1318 1314 1311 1309 1306 1303 1300 1297 1293 1289 1286 1283 1280 1278 1276 1273 1269 1264 1258 1252 1249 1247 1245 1245 1245 1246 1248 1251 1255